Theta_e
317 315 318 325 318 313 315 317 317 319 320 322 323 321 324 329 339 340 339 328 326 326 325 322 323 322 321 321 321 320 320 320 320 320 320 319 319 319 319 319 319 319 318 318 318 318 318 318 318
316 313 322 322 316 316 314 316 318 318 320 322 322 323 329 334 339 340 333 328 326 326 326 325 323 323 323 322 323 322 321 321 321 321 321 320 320 320 319 319 320 319 319 319 319 319 319 319 318
317 317 322 318 314 316 316 317 319 319 321 321 321 323 334 340 341 339 331 327 326 326 325 326 324 324 323 324 324 323 322 322 322 321 321 321 320 320 320 320 320 320 320 320 319 319 319 319 319
327 322 325 321 320 316 317 317 317 318 322 322 322 321 338 340 341 339 329 327 326 326 326 326 325 324 324 324 324 323 323 322 322 322 321 321 321 321 321 320 321 321 320 320 320 320 319 319 319
323 327 323 319 319 318 318 318 320 318 319 321 323 322 338 339 340 337 331 327 327 326 326 326 325 323 323 324 324 324 323 322 322 322 322 322 322 321 321 321 321 320 320 320 320 320 320 320 319
330 324 322 324 320 322 321 322 322 319 321 324 323 322 338 339 340 338 335 329 327 328 328 326 325 323 323 323 324 324 324 323 323 323 322 322 321 321 320 320 319 319 319 320 320 320 320 320 320
328 319 322 322 323 323 322 322 322 321 323 324 326 325 336 338 338 339 337 328 326 327 327 326 325 324 322 323 324 324 323 323 323 322 322 321 321 320 320 319 319 319 319 319 319 320 320 320 320
325 324 328 323 324 323 324 326 325 325 325 326 327 322 326 336 337 337 333 326 326 326 327 326 325 325 323 323 323 324 325 324 324 323 322 321 320 320 319 319 319 319 319 318 318 319 319 319 320
321 326 328 328 327 326 326 324 326 327 326 326 326 327 327 336 339 338 332 326 326 326 326 326 326 325 323 323 323 324 324 325 325 324 323 322 322 321 320 320 319 318 318 318 317 317 318 319 319
316 319 326 326 325 325 325 324 325 324 324 324 325 326 326 333 340 338 330 326 326 327 327 327 326 325 324 323 323 323 324 324 325 324 324 324 323 321 320 319 319 318 317 317 317 317 316 317 318
314 318 321 322 322 323 323 323 322 322 323 324 324 325 325 327 330 340 334 329 326 326 327 327 327 326 325 325 325 324 324 325 325 325 324 323 324 322 321 320 319 318 317 318 317 316 316 316 316
312 313 316 317 318 319 319 320 320 321 321 322 323 323 324 326 327 327 338 336 330 327 325 327 327 327 326 325 325 325 325 325 325 325 325 325 325 324 322 322 320 318 318 318 317 316 315 315 315
310 311 313 313 314 314 316 319 320 320 320 321 321 322 324 325 326 327 326 332 337 331 328 327 327 327 326 325 324 325 324 325 325 325 326 326 327 326 324 324 322 321 321 322 323 320 318 316 316
310 310 310 311 311 312 314 315 316 317 317 318 318 319 320 321 324 325 326 328 333 337 338 329 327 326 325 325 325 325 324 325 325 324 327 328 327 329 328 329 327 329 332 333 335 331 328 323 323
310 309 308 310 311 312 314 314 315 317 317 318 318 319 319 321 322 323 325 327 328 335 335 338 334 328 327 327 328 329 329 334 335 330 330 331 332 333 332 330 333 337 338 339 339 338 338 332 330
309 306 307 308 311 311 314 314 316 315 315 315 315 316 317 318 319 321 325 327 328 330 336 337 340 338 337 336 332 335 336 334 336 338 336 333 333 336 330 333 335 338 338 342 342 342 340 337 333
306 307 308 309 309 310 311 311 311 313 313 313 314 314 314 315 316 318 321 322 325 328 331 338 339 339 340 339 337 337 336 336 336 335 334 333 331 331 331 335 336 339 338 341 344 343 341 339 335
310 309 310 310 311 310 310 310 311 312 313 313 313 313 313 314 314 315 315 319 323 325 328 329 335 337 341 341 340 337 336 336 337 337 335 334 331 331 331 332 335 338 336 341 343 344 343 341 337
309 310 310 309 310 310 309 310 311 310 311 311 312 313 313 314 314 315 315 316 319 322 327 328 329 336 341 342 339 337 336 337 337 337 335 330 331 332 331 333 336 336 332 335 342 344 344 341 338
308 308 310 310 312 311 310 311 310 310 310 311 311 312 313 313 314 314 314 315 316 319 321 323 325 327 336 339 336 336 337 336 336 335 334 331 332 332 331 332 335 332 332 335 342 345 344 341 338
311 312 312 312 312 310 309 310 310 310 310 311 312 312 312 313 313 313 313 314 315 316 317 320 323 324 326 332 336 336 337 335 335 334 332 331 334 331 330 332 332 329 335 339 344 345 344 342 339
311 312 312 312 311 310 310 310 309 309 309 309 310 311 311 312 312 313 313 314 314 315 316 316 319 324 325 326 336 336 334 334 332 332 331 332 331 327 327 329 331 332 337 341 344 345 343 341 340
310 312 311 311 309 309 310 308 308 309 308 308 308 311 314 314 315 315 314 314 314 315 315 316 318 321 324 327 331 333 334 333 332 332 331 330 327 326 327 328 335 337 338 343 345 345 344 341 339
311 310 307 306 308 309 309 309 308 308 308 308 311 314 314 314 313 314 315 315 315 315 315 316 317 320 324 324 324 330 333 333 333 332 331 328 326 326 325 325 328 339 342 344 345 345 343 339 338
307 306 307 307 307 309 308 309 310 309 310 313 312 313 313 313 312 312 312 314 315 315 315 316 317 319 322 327 324 330 332 332 333 332 328 327 326 326 325 327 333 344 344 344 345 343 339 339 338
309 306 307 309 310 308 308 309 310 312 313 313 314 313 313 312 311 311 312 312 316 317 316 315 316 318 320 324 331 332 333 333 331 329 327 326 326 326 325 331 343 345 345 345 341 338 339 338 339
309 309 307 308 307 307 308 309 310 311 313 313 312 312 312 311 311 312 313 313 317 319 319 318 317 319 320 322 329 332 331 329 328 325 326 326 327 328 327 338 344 345 346 342 339 338 339 338 340
307 307 307 306 311 312 309 310 311 310 310 312 311 311 312 311 312 314 315 314 319 319 318 322 323 325 322 322 327 330 328 326 325 326 326 327 328 329 332 344 346 346 344 340 338 339 339 341 338
307 309 309 307 308 308 309 310 309 311 312 312 311 311 311 311 314 314 314 316 317 317 320 324 331 329 325 322 324 326 326 325 325 326 327 328 331 330 340 345 345 344 340 338 338 339 339 338 336
308 308 308 304 305 312 310 311 310 309 308 309 310 311 312 312 314 313 314 316 315 317 319 324 333 336 328 324 322 322 322 324 325 325 327 331 333 332 341 344 345 340 339 338 340 339 336 333 333
Wind_Speed
5 4 4 2 3 4 3 7 3 7 9 1 28 8 14 22 9 7 14 39 36 37 36 33 31 29 27 27 27 28 28 27 26 24 22 20 18 16 14 12 11 10 9 8 8 7 7 7 6
3 4 3 2 4 1 5 5 4 6 11 28 29 15 9 10 24 7 30 41 41 39 39 35 34 31 29 28 27 27 27 26 25 24 22 19 17 15 13 11 9 8 7 7 6 6 5 5 5
1 7 2 3 4 6 5 3 2 13 21 21 10 27 9 6 24 16 32 43 44 41 39 37 35 34 31 29 27 27 27 25 24 22 20 18 16 13 12 10 9 8 6 5 5 4 5 4 4
2 3 3 3 11 5 5 3 5 13 25 11 14 14 9 14 19 24 42 44 45 42 40 36 36 36 33 30 28 28 26 25 23 21 19 17 15 13 11 10 9 7 6 6 5 4 4 3 2
5 1 2 3 11 4 3 4 9 8 11 22 27 9 7 13 17 32 46 44 46 43 39 36 36 37 35 31 29 27 25 24 22 20 18 16 14 13 12 11 10 9 8 7 7 6 5 4 4
4 2 2 7 17 3 3 6 10 5 17 27 17 17 5 13 20 32 44 45 46 45 41 39 37 36 35 32 29 26 24 23 21 19 18 16 15 14 13 13 12 10 10 9 9 9 8 8 7
4 3 5 5 10 5 2 3 3 6 10 12 24 6 9 10 17 40 46 49 46 43 42 41 39 37 36 33 30 26 24 22 20 20 19 17 17 16 15 15 15 13 13 13 13 12 12 12 11
5 4 3 5 11 5 2 6 5 10 15 18 18 6 16 13 21 42 41 49 47 44 42 41 40 38 38 35 31 27 25 22 21 20 19 18 18 18 18 18 18 17 16 16 16 16 16 15 14
5 3 6 6 8 1 16 7 11 11 16 20 11 16 27 5 20 36 39 45 46 42 40 39 39 39 38 36 33 30 27 25 22 20 20 20 20 22 21 21 20 20 19 19 19 19 19 19 18
5 5 8 5 5 8 21 9 18 11 19 23 20 25 23 12 9 27 39 42 43 42 42 41 41 40 38 35 34 32 29 27 25 23 22 21 21 23 23 22 23 23 21 21 21 23 23 24 22
4 8 4 5 3 6 16 18 18 13 19 14 23 30 33 19 8 20 24 34 41 43 46 44 41 39 37 36 34 32 31 29 26 24 23 23 23 25 26 25 26 25 24 22 25 25 26 27 26
4 5 4 5 13 14 15 27 21 27 34 30 26 28 25 20 17 8 23 26 33 39 44 44 42 40 37 37 35 33 33 31 28 26 24 25 26 27 28 27 27 26 24 24 25 26 27 28 28
4 4 9 15 14 15 22 21 19 36 42 30 28 24 23 20 18 13 11 24 31 38 41 43 43 43 41 40 38 36 36 32 28 27 25 27 28 29 28 27 27 25 24 22 22 25 26 27 27
4 3 8 6 9 9 9 14 13 41 21 24 27 28 24 26 19 19 18 13 27 34 36 43 46 45 45 41 38 36 35 29 31 31 28 29 30 30 29 25 25 22 22 19 18 21 22 23 22
5 6 5 5 7 8 10 13 22 35 26 26 22 28 21 21 19 21 19 17 13 24 34 41 42 42 42 40 37 30 31 24 27 29 29 30 30 31 27 23 22 21 20 18 18 18 19 21 20
2 4 2 5 2 7 14 23 2 8 12 20 22 15 21 23 24 19 16 14 14 15 25 37 44 42 40 39 40 36 28 25 31 26 29 29 28 29 27 25 24 20 21 20 20 20 19 21 20
5 1 2 6 4 4 7 3 7 14 19 20 23 26 23 25 18 14 18 24 22 19 19 25 30 39 42 39 42 36 28 33 32 37 31 27 25 28 30 30 28 23 23 23 22 23 21 22 19
3 1 3 4 5 6 12 9 5 14 11 17 21 26 29 32 29 25 19 16 23 24 24 25 31 34 40 41 41 39 38 42 40 33 33 29 28 27 31 32 30 26 27 26 25 25 22 22 18
4 2 2 4 5 5 7 15 9 9 13 13 20 23 25 26 27 25 24 19 15 22 29 28 32 38 41 45 46 45 47 46 40 36 34 35 31 27 32 34 31 29 30 27 25 26 24 23 18
4 1 1 4 5 7 10 22 10 3 5 10 18 19 21 29 30 27 27 23 19 18 24 34 35 34 49 53 50 46 42 41 37 37 39 39 33 30 32 34 31 29 28 23 27 27 24 23 21
1 3 2 3 6 5 7 18 12 3 5 17 14 16 24 30 33 34 31 29 27 21 20 25 36 37 36 44 54 49 48 46 45 45 41 38 34 30 32 34 32 30 25 22 26 26 23 22 20
2 1 1 5 6 3 5 12 5 8 10 4 13 24 31 27 29 31 30 31 30 28 24 24 26 32 38 35 52 53 52 52 47 46 38 35 29 30 31 32 29 28 23 23 23 22 22 21 23
4 2 3 3 4 2 2 4 3 14 13 16 11 10 11 15 20 27 28 31 33 32 31 27 24 27 35 37 47 52 55 54 51 42 38 30 30 30 31 33 31 25 23 22 22 22 21 20 22
3 2 5 4 2 1 7 5 4 2 2 8 6 15 17 21 23 23 26 29 34 35 35 32 26 26 28 38 38 49 57 56 51 43 36 32 33 31 30 33 31 23 23 22 22 22 19 19 20
5 5 4 4 2 5 3 5 11 16 16 5 9 16 19 21 25 26 27 28 31 35 35 35 30 27 25 31 40 41 49 53 47 41 35 33 32 28 26 29 24 22 22 20 20 21 19 20 18
4 6 5 5 3 13 6 7 7 6 9 15 16 19 20 25 28 31 32 29 28 30 34 36 35 31 27 28 34 33 35 42 41 37 34 33 31 25 22 20 19 21 20 20 17 17 19 18 17
2 4 5 3 1 1 5 8 10 18 9 11 13 16 23 28 33 37 39 31 26 27 29 31 35 34 28 31 35 38 37 39 38 36 35 35 28 25 17 15 20 21 19 16 18 18 18 17 17
5 4 1 2 3 4 5 5 9 12 13 9 11 15 30 33 35 38 40 30 21 23 25 26 30 31 28 32 36 41 40 39 38 37 35 34 29 24 18 19 21 20 18 17 20 18 18 17 15
2 1 3 2 3 4 3 7 6 8 10 12 14 24 29 33 34 33 37 30 18 22 21 23 22 27 25 30 40 43 44 41 37 35 31 30 27 22 22 21 21 20 19 21 20 18 14 14 14
5 5 5 4 5 5 3 14 5 15 11 11 20 31 33 31 28 35 40 27 23 24 23 21 18 18 21 29 37 41 41 38 32 27 24 22 24 23 23 22 22 20 22 21 18 18 15 14 14
Wind_Direction
340 267 193 186 57 63 248 251 260 322 336 277 311 252 230 229 184 211 168 170 172 166 160 160 161 161 159 154 151 150 153 153 151 150 148 147 146 142 141 138 133 128 124 118 113 106 101 95 95
327 200 192 117 98 223 259 243 278 261 278 302 310 302 267 233 195 206 159 172 171 168 162 160 165 164 164 160 158 158 159 158 157 156 155 156 157 155 154 152 148 145 139 137 137 131 116 106 99
266 173 145 112 148 215 221 221 20 294 313 301 297 317 276 218 191 185 177 168 172 171 166 162 168 169 167 166 166 166 166 165 166 165 166 168 168 167 167 166 168 165 163 171 173 165 148 141 127
218 165 86 98 243 254 224 322 331 330 327 350 316 303 276 268 201 191 171 171 173 172 167 168 170 172 171 173 174 173 172 173 175 175 176 180 179 182 182 184 188 186 192 200 210 212 195 163 172
220 165 100 241 262 249 253 275 310 303 294 309 319 280 264 204 188 180 172 172 174 171 170 175 174 175 175 179 179 178 179 181 183 186 187 189 193 198 202 204 208 212 215 219 231 242 242 242 239
164 134 95 230 250 269 274 267 289 272 300 317 332 314 262 231 192 183 178 178 177 172 173 179 179 179 178 183 185 185 187 190 193 197 201 205 209 214 219 224 226 226 235 238 243 250 254 257 256
147 114 213 264 264 281 244 229 250 278 309 306 341 303 303 247 203 179 181 181 180 177 177 180 181 182 182 187 189 188 192 197 202 207 212 216 222 226 230 236 238 239 243 246 249 252 254 259 264
196 131 227 237 257 282 209 340 294 310 300 322 344 1 334 300 199 177 182 181 182 181 182 183 184 186 187 189 192 193 195 200 206 211 217 224 230 235 238 242 245 247 248 252 254 257 258 259 263
181 179 210 227 251 274 309 2 299 307 311 322 338 355 352 268 204 191 187 185 185 185 185 187 189 191 192 192 194 198 200 203 210 217 222 228 235 240 240 246 250 253 254 256 258 260 261 261 262
185 197 215 204 235 318 295 290 305 323 319 302 315 325 355 353 225 200 189 191 189 189 191 193 194 195 195 197 200 202 205 208 213 221 229 234 243 245 248 251 253 255 256 259 262 261 262 262 262
214 237 193 256 312 313 295 296 309 306 291 281 307 314 323 325 320 230 208 204 197 197 195 196 198 199 201 202 205 209 211 215 221 226 235 241 247 249 251 254 255 257 260 266 268 265 265 267 266
249 222 192 274 277 278 272 293 290 292 271 288 293 303 310 311 316 251 230 231 221 212 204 202 201 204 206 211 212 215 219 220 226 231 236 244 249 252 255 258 261 261 265 270 270 271 270 269 269
231 286 287 279 277 273 277 272 275 276 278 289 295 299 297 292 294 307 266 241 236 223 216 211 209 211 212 215 216 218 224 228 236 237 241 248 254 257 262 265 265 268 270 270 271 272 272 270 270
316 286 286 285 282 262 261 271 265 267 283 294 295 292 288 288 291 293 284 283 233 234 231 224 218 219 217 219 220 225 231 235 242 246 247 250 254 262 263 267 267 267 270 270 272 271 275 273 270
300 335 343 218 232 228 244 261 240 265 292 293 289 292 297 290 289 281 281 278 259 237 235 236 226 224 219 221 224 229 232 233 250 250 252 255 257 261 265 264 265 269 274 271 270 268 271 267 261
349 48 28 283 275 256 191 249 281 330 334 314 324 318 304 297 295 293 268 266 252 258 245 239 235 228 223 219 218 218 223 234 259 262 256 257 260 265 266 267 271 276 280 278 272 269 269 266 257
7 179 218 308 277 273 189 321 346 342 335 321 327 329 331 325 320 315 285 281 256 248 244 234 236 235 230 221 216 222 238 238 233 250 254 254 263 264 269 273 278 277 279 278 275 272 266 267 259
268 295 272 254 298 334 304 295 298 307 309 306 313 320 324 324 320 321 330 295 276 251 244 240 246 242 235 222 223 232 246 245 241 250 251 256 261 261 267 273 276 279 280 277 274 270 266 269 265
268 256 235 265 335 349 282 299 315 285 296 292 305 314 317 320 323 321 323 327 318 269 252 239 243 243 232 225 229 241 245 247 249 239 250 257 258 260 263 270 272 277 283 283 279 267 263 263 259
228 191 325 275 329 333 310 297 299 262 256 297 306 309 311 313 317 323 321 312 314 310 265 261 249 248 241 236 240 235 237 243 244 242 247 257 260 260 262 267 269 277 278 279 271 262 257 259 250
97 124 322 277 313 288 314 292 297 231 292 303 293 307 315 312 310 311 313 310 303 303 307 285 267 254 249 247 237 230 234 238 238 240 246 250 252 258 262 264 268 270 266 271 267 258 253 260 252
337 119 357 328 11 311 56 291 252 272 289 279 285 290 292 302 302 302 301 299 291 289 291 296 281 261 247 246 232 231 235 238 247 248 248 249 252 261 263 263 264 256 255 264 261 253 250 252 247
239 349 327 299 294 9 254 284 110 324 289 278 297 328 319 321 308 302 300 297 291 291 292 289 293 269 250 244 237 238 238 243 247 247 245 246 253 258 262 261 256 255 249 258 250 244 247 246 241
60 34 16 30 46 313 230 207 326 230 317 318 291 297 311 316 316 320 309 298 291 289 284 280 285 278 259 248 248 240 238 242 242 238 240 245 250 255 263 261 257 248 243 248 246 241 237 235 241
65 51 346 339 358 241 275 272 264 299 299 297 282 296 308 313 320 317 317 312 301 295 288 279 281 282 263 258 244 243 237 242 239 235 243 248 252 258 270 265 250 236 241 244 240 239 224 228 235
228 156 162 254 240 283 277 253 255 236 232 273 276 284 300 309 319 326 322 311 303 298 290 284 275 276 260 259 243 232 231 232 234 241 250 255 255 260 269 260 242 237 241 240 229 219 222 227 231
199 176 208 232 108 346 228 268 291 265 237 264 271 277 290 310 317 317 319 305 300 296 292 288 277 272 256 244 243 230 228 234 242 249 253 254 252 253 250 239 237 236 244 247 210 223 226 219 225
161 190 2 9 284 252 262 259 252 275 278 282 288 291 302 309 314 317 314 299 302 299 301 290 275 270 249 233 235 231 237 242 248 251 252 254 248 243 232 231 229 235 236 224 215 225 210 217 222
307 242 91 131 170 224 288 261 221 255 273 277 284 285 288 303 314 321 322 306 310 324 319 304 277 264 248 234 230 234 236 244 246 248 251 248 236 233 225 225 229 228 216 204 214 208 208 212 223
185 227 158 132 260 224 226 270 229 259 285 296 283 288 289 295 308 329 330 312 313 333 331 318 277 265 244 232 232 235 240 240 239 236 234 228 227 222 222 223 219 206 199 205 207 201 206 219 231